Regional Weather Roundup
Issued by NWS Jackson, KY

Home | Current Version | Previous Version | Text Only | Print | Product List | Glossary Off
Versions: 1 2 3 4 5 6 7 8 9 10 11 12 13 14 15 16 17 18 19 20 21 22 23 24 25 26 27

000
ASUS43 KJKL 161710
RWRJKL

EAST KENTUCKY HOURLY WEATHER ROUNDUP
NATIONAL WEATHER SERVICE JACKSON KY
100 PM EDT WED AUG 16 2017

NOTE: "FAIR" INDICATES FEW OR NO CLOUDS BELOW 12,000 FEET WITH
NO SIGNIFICANT WEATHER AND/OR OBSTRUCTIONS TO VISIBILITY.

* THESE REPORTS ARE NOT UNDER NWS QUALITY CONTROL AND MAY NOT
  REPORT WEATHER SUCH AS PRECIPITATION AND FOG.

KYZ079-080-083-085-087-088-110-112-115-119-120-161800
...EASTERN KENTUCKY...

CITY           SKY/WX    TMP DP  RH WIND       PRES   REMARKS
JACKSON        CLOUDY    82  72  71 CALM      30.09F
LONDON         PTSUNNY   82  73  74 VRB3      30.09F
SOMERSET*      CLOUDY    82  70  65 N10       30.08S
MONTICELLO*    PTSUNNY   85  75  72 W17       30.09F HX  93
WILLIAMSBURG*  MOSUNNY   84  72  65 SW7       30.08F
MIDDLESBORO*   CLOUDY    84  71  65 S7        30.09F
HARLAN APT*    CLOUDY    82  68  61 CALM      30.11F
PIKE CO APT*     N/A     81  70  69 CALM      30.10F
BIG SANDY APT* SUNNY     84  71  63 CALM      30.09F
MOREHEAD APT*  PTSUNNY   84  70  61 CALM      30.09S
$$

KYZ035-036-041-042-044-050-067-078-099-161800
...CENTRAL KENTUCKY...

CITY           SKY/WX    TMP DP  RH WIND       PRES   REMARKS
MT STERLING*   MOSUNNY   84  72  65 W3        30.08F
FLEMING/MASON* MOSUNNY   86  71  61 SW3       30.07F HX  92
DANVILLE*      CLOUDY    82  70  65 SW8       30.08F
LEXINGTON      HVY RAIN  74  70  87 S7        30.07S VSB 1
FRANKFORT      MOSUNNY   86  72  62 S8        30.04F HX  92
LOUISVILLE     PTSUNNY   87  70  56 VRB7      30.01F HX  92
LEBANON*         N/A     84  70  61 S8        30.05F
GLASGOW*       CLOUDY    84  73  69 SW8       30.06F
BOWLING GREEN  CLOUDY    85  76  74 S5        30.04F HX  94
$$

KYZ091>093-OHZ055-061-077-WVZ005-015-034-035-042-161800
...SOUTHERN OHIO/WEST VIRGINIA...

CITY           SKY/WX    TMP DP  RH WIND       PRES   REMARKS
COVINGTON      MOSUNNY   86  70  58 VRB6      30.04F HX  90
COLUMBUS       PTSUNNY   84  70  62 VRB7      30.04F
DAYTON         MOSUNNY   85  66  53 SW8       30.06F
WILMINGTON     MOSUNNY   84  69  60 W6        30.06F
HUNTINGTON     MOSUNNY   86  70  58 VRB3      30.06F HX  90
CHARLESTON     MOSUNNY   84  68  58 SW5       30.07F
PINEVILLE*     MOSUNNY   84  67  55 MISG      30.17S
BECKLEY        MOSUNNY   81  64  56 VRB6      30.16S
BLUEFIELD      MOSUNNY   79  63  57 W6        30.18F
LOGAN CO APT*    N/A     82  68  61 NW3       30.11S
$$

VAZ002-007-008-TNZ017-027-036-066-071-161800
...SOUTHWEST VIRGINIA/EAST TENNESSEE...

CITY           SKY/WX    TMP DP  RH WIND       PRES   REMARKS
WISE*          LGT RAIN  72  72 100 NW3       30.20R
JONESVILLE*      N/A     84  70  61 SW8       30.12F
ABINGDON*      PTSUNNY   82  72  70 W7        30.15S
BRISTOL        PTSUNNY   82  73  74 NW5       30.11F
MORRISTOWN*    MOSUNNY   82  73  74 NW5       30.10S
SEVIERVILLE*   MOSUNNY   88  70  55 W7        30.07F HX  92
KNOXVILLE      PTSUNNY   84  71  65 VRB5      30.08S
LAFOLLETTE*    MOSUNNY   84  73  70 VRB5      30.12F HX  91
OAK RIDGE      MOSUNNY   86  71  60 VRB3      30.09  HX  91
CROSSVILLE     CLOUDY    78  70  76 W5        30.15F
NASHVILLE      PTSUNNY   84  76  76 S7        30.07F HX  93
$$

...KEY TO REMARKS...
VSB - VISIBILITY IN MILES
WCI - WIND CHILL INDEX
HX  - HEAT INDEX

$$




USA.gov is the U.S. government's official web portal to all federal, state and local government web resources and services.